Location: Tuckahoe State Park
(38.9833°N, 75.9333°W)
Time: 15:54:21
(UTC-04:00)

ISS - Visible Passes

Search period start: 22 April 2019 00:00
Search period end: 02 May 2019 00:00
Orbit: 408 x 410 km, 51.6° (Epoch: 23 April)

Date Brightness Start Highest point End Pass type
(mag) Time Alt. Az. Time Alt. Az. Time Alt. Az.
26 Apr -1.7 05:41:23 10° S 05:44:03 23° SE 05:46:44 10° ENE visible
27 Apr -1.1 04:52:01 10° SSE 04:53:25 12° SE 04:54:49 10° ESE visible
28 Apr -3.5 05:35:30 10° SW 05:38:46 65° SE 05:42:03 10° ENE visible
29 Apr -2.5 04:46:23 20° S 04:48:00 32° SE 04:51:00 10° ENE visible
30 Apr -1.5 03:57:37 17° ESE 03:57:37 17° ESE 03:59:32 10° E visible
30 Apr -3.2 05:30:24 10° WSW 05:33:36 47° NW 05:36:49 10° NE visible
01 May -3.9 04:41:31 37° SW 04:42:42 88° NW 04:46:00 10° NE visible
